AFR606 LKPR-OKKK

Flight info

Callsign AFR606
Flight time N/A
Altitude 33000
Route LKPR/06 N0459F330 VOZ4E VOZ DCT NIT DCT UVERA DCT ULMIN DCT TUMOP DCT IVGOT Q7 ARTAT UP975 ERGUN/N0467F350 UP975 LESRI P975 ULDUR M688 SIDAD SIDA1H OKKK/34
Aircraft A321/L-V/N

Departure

Time N/A
Airport Václav Havel Airport Prague (LKPR)

Arrival

Time 2026-05-05 10:37
Airport Kuwait International Airport (OKKK)
Time Latitude Longitude Altitude Speed Heading
2026-05-05 09:18 36.18361 42.05497 34912 ft 443 kts 151°
2026-05-05 09:19 36.15942 42.07865 34908 ft 442 kts 151°
2026-05-05 09:19 36.11133 42.12542 34912 ft 441 kts 151°
2026-05-05 09:20 36.06292 42.17226 34916 ft 443 kts 151°
2026-05-05 09:20 36.01440 42.21908 34923 ft 443 kts 151°
2026-05-05 09:21 35.96598 42.26574 34930 ft 444 kts 151°
2026-05-05 09:21 35.91744 42.31240 34915 ft 444 kts 151°
2026-05-05 09:22 35.86879 42.35910 34926 ft 444 kts 151°
2026-05-05 09:22 35.82003 42.40581 34927 ft 444 kts 151°
2026-05-05 09:23 35.77158 42.45219 34923 ft 443 kts 152°
2026-05-05 09:23 35.72298 42.49862 34943 ft 444 kts 152°
2026-05-05 09:24 35.67430 42.54504 34908 ft 443 kts 152°
2026-05-05 09:24 35.62559 42.59143 34925 ft 444 kts 152°
2026-05-05 09:25 35.57704 42.63762 34905 ft 443 kts 152°
2026-05-05 09:25 35.52828 42.68390 34897 ft 443 kts 152°
2026-05-05 09:26 35.47971 42.72993 34894 ft 442 kts 152°
2026-05-05 09:26 35.43100 42.77605 34894 ft 444 kts 152°
2026-05-05 09:27 35.38237 42.82202 34894 ft 443 kts 153°
2026-05-05 09:27 35.33349 42.86814 34891 ft 444 kts 152°
2026-05-05 09:28 35.28466 42.91415 34878 ft 444 kts 153°
2026-05-05 09:28 35.23556 42.96024 34889 ft 446 kts 153°
2026-05-05 09:29 35.18654 43.00617 34881 ft 445 kts 153°
2026-05-05 09:29 35.13763 43.05201 34875 ft 443 kts 153°
2026-05-05 09:30 35.08860 43.09787 34880 ft 444 kts 153°
2026-05-05 09:30 35.03955 43.14368 34898 ft 447 kts 153°
2026-05-05 09:31 34.99038 43.18952 34895 ft 447 kts 153°
2026-05-05 09:31 34.94094 43.23558 34898 ft 448 kts 153°
2026-05-05 09:32 34.89126 43.28178 34899 ft 447 kts 153°
2026-05-05 09:32 34.84192 43.32758 34899 ft 449 kts 153°
2026-05-05 09:33 34.79248 43.37343 34896 ft 448 kts 154°
2026-05-05 09:33 34.74275 43.41949 34894 ft 447 kts 154°
2026-05-05 09:34 34.69331 43.46518 34897 ft 449 kts 154°
2026-05-05 09:34 34.64373 43.51093 34895 ft 448 kts 154°
2026-05-05 09:35 34.59441 43.55642 34895 ft 448 kts 154°
2026-05-05 09:35 34.51990 43.62495 34890 ft 449 kts 154°
2026-05-05 09:36 34.47000 43.67075 34887 ft 448 kts 155°
2026-05-05 09:36 34.42041 43.71622 34890 ft 450 kts 155°
2026-05-05 09:37 34.37074 43.76170 34888 ft 450 kts 155°
2026-05-05 09:37 34.32085 43.80738 34892 ft 450 kts 155°
2026-05-05 09:38 34.27087 43.85310 34893 ft 451 kts 155°
2026-05-05 09:38 34.22073 43.89886 34892 ft 451 kts 155°
2026-05-05 09:39 34.16940 43.95033 34898 ft 459 kts 150°
2026-05-05 09:39 34.11945 44.00309 34894 ft 459 kts 150°
2026-05-05 09:40 34.06897 44.05639 34887 ft 459 kts 150°
2026-05-05 09:40 34.01851 44.10955 34877 ft 460 kts 151°
2026-05-05 09:41 33.96858 44.16206 34876 ft 461 kts 151°
2026-05-05 09:41 33.91819 44.21495 34873 ft 461 kts 150°
2026-05-05 09:42 33.86788 44.26770 34874 ft 462 kts 150°
2026-05-05 09:42 33.81726 44.32065 34872 ft 462 kts 150°
2026-05-05 09:43 33.76611 44.37410 34870 ft 463 kts 150°
2026-05-05 09:43 33.71407 44.42840 34868 ft 463 kts 150°
2026-05-05 09:44 33.66304 44.48154 34864 ft 463 kts 150°
2026-05-05 09:44 33.61172 44.53493 34865 ft 464 kts 150°
2026-05-05 09:45 33.58603 44.56165 34979 ft 464 kts 150°
2026-05-05 09:45 33.56028 44.58839 34910 ft 463 kts 150°
2026-05-05 09:45 33.50958 44.64108 34872 ft 465 kts 150°
2026-05-05 09:46 33.46058 44.69255 34868 ft 464 kts 150°
2026-05-05 09:46 33.41186 44.74369 34857 ft 466 kts 150°
2026-05-05 09:47 33.36328 44.79458 34849 ft 465 kts 150°
2026-05-05 09:47 33.31447 44.84582 34844 ft 467 kts 150°
2026-05-05 09:48 33.26595 44.89692 34835 ft 469 kts 150°
2026-05-05 09:48 33.21724 44.94824 34837 ft 468 kts 150°
2026-05-05 09:49 33.16826 44.99971 34835 ft 469 kts 150°
2026-05-05 09:49 33.11925 45.05113 34831 ft 469 kts 150°
2026-05-05 09:50 33.07046 45.10221 34842 ft 471 kts 150°
2026-05-05 09:50 33.02145 45.15348 34842 ft 471 kts 150°
2026-05-05 09:51 32.97233 45.20480 34835 ft 470 kts 149°
2026-05-05 09:51 32.92310 45.25617 34838 ft 470 kts 149°
2026-05-05 09:52 32.87376 45.30757 34832 ft 471 kts 149°
2026-05-05 09:52 32.82475 45.35854 34828 ft 472 kts 149°
2026-05-05 09:53 32.77614 45.41169 34816 ft 475 kts 147°
2026-05-05 09:53 32.72802 45.46537 34819 ft 477 kts 147°
2026-05-05 09:54 32.67942 45.51928 34810 ft 476 kts 147°
2026-05-05 09:54 32.63088 45.57278 34805 ft 477 kts 147°
2026-05-05 09:55 32.58230 45.62639 34820 ft 478 kts 147°
2026-05-05 09:55 32.53371 45.68011 34807 ft 478 kts 147°
2026-05-05 09:56 32.48533 45.73357 34804 ft 477 kts 147°
2026-05-05 09:56 32.43663 45.78727 34806 ft 478 kts 147°
2026-05-05 09:57 32.38833 45.84047 34810 ft 479 kts 147°
2026-05-05 09:57 32.33948 45.89396 34803 ft 478 kts 147°
2026-05-05 09:58 32.29067 45.94714 34807 ft 480 kts 147°
2026-05-05 09:58 32.24146 46.00082 34812 ft 480 kts 147°
2026-05-05 09:59 32.19266 46.05399 34800 ft 480 kts 147°
2026-05-05 09:59 32.14370 46.10726 34806 ft 480 kts 147°
2026-05-05 10:00 32.09457 46.16063 34796 ft 481 kts 147°
2026-05-05 10:00 32.04533 46.21407 34798 ft 480 kts 147°
2026-05-05 10:01 31.99648 46.26697 34795 ft 480 kts 147°
2026-05-05 10:01 31.94716 46.32028 34792 ft 481 kts 147°
2026-05-05 10:02 31.89819 46.37318 34791 ft 480 kts 147°
2026-05-05 10:02 31.84903 46.42617 34785 ft 480 kts 147°
2026-05-05 10:03 31.79999 46.47896 34787 ft 481 kts 147°
2026-05-05 10:03 31.75079 46.53184 34779 ft 481 kts 147°
2026-05-05 10:04 31.70136 46.58493 34771 ft 480 kts 147°
2026-05-05 10:04 31.65231 46.63751 34766 ft 480 kts 147°
2026-05-05 10:05 31.60279 46.69051 34765 ft 480 kts 147°
2026-05-05 10:05 31.55371 46.74296 34771 ft 480 kts 147°
2026-05-05 10:06 31.50457 46.79543 34777 ft 479 kts 147°
2026-05-05 10:06 31.45536 46.84790 34766 ft 479 kts 147°
2026-05-05 10:07 31.40607 46.90036 34780 ft 480 kts 147°
2026-05-05 10:07 31.35677 46.95275 34779 ft 480 kts 147°
2026-05-05 10:08 31.30741 47.00515 34771 ft 480 kts 147°
2026-05-05 10:08 31.25783 47.05776 34755 ft 479 kts 147°
2026-05-05 10:09 31.20880 47.10979 34773 ft 479 kts 147°
2026-05-05 10:09 31.15941 47.16211 34756 ft 479 kts 147°
2026-05-05 10:10 31.11021 47.21414 34761 ft 480 kts 147°
2026-05-05 10:10 31.06055 47.26661 34758 ft 481 kts 147°
2026-05-05 10:11 31.01115 47.31873 34745 ft 481 kts 147°
2026-05-05 10:11 30.96150 47.37106 34762 ft 482 kts 147°
2026-05-05 10:12 30.91207 47.42312 34763 ft 482 kts 147°
2026-05-05 10:12 30.86232 47.47539 34762 ft 480 kts 147°
2026-05-05 10:13 30.81243 47.52761 34759 ft 482 kts 147°
2026-05-05 10:13 30.76348 47.57870 34420 ft 480 kts 147°
2026-05-05 10:14 30.74516 47.59782 34235 ft 483 kts 147°
2026-05-05 10:14 30.72015 47.62382 33969 ft 482 kts 147°
2026-05-05 10:14 30.69535 47.64973 33714 ft 478 kts 147°
2026-05-05 10:14 30.67057 47.67559 33446 ft 476 kts 147°
2026-05-05 10:15 30.64619 47.70098 33191 ft 476 kts 147°
2026-05-05 10:15 30.62141 47.72676 32949 ft 475 kts 147°
2026-05-05 10:15 30.59676 47.75239 32704 ft 475 kts 147°
2026-05-05 10:15 30.57197 47.77815 32467 ft 476 kts 147°
2026-05-05 10:16 30.54760 47.80344 32230 ft 476 kts 147°
2026-05-05 10:16 30.52271 47.82927 31979 ft 477 kts 146°
2026-05-05 10:16 30.49828 47.85461 31687 ft 477 kts 146°
2026-05-05 10:16 30.47330 47.88048 31141 ft 479 kts 146°
2026-05-05 10:17 30.44849 47.90614 30390 ft 481 kts 145°
2026-05-05 10:17 30.42363 47.93179 29526 ft 484 kts 144°
2026-05-05 10:17 30.39845 47.95780 28574 ft 487 kts 144°
2026-05-05 10:17 30.37323 47.98391 27658 ft 488 kts 144°
2026-05-05 10:18 30.34820 48.00982 26761 ft 489 kts 144°
2026-05-05 10:18 30.32277 48.03612 25846 ft 489 kts 143°
2026-05-05 10:18 30.29762 48.06211 24924 ft 488 kts 143°
2026-05-05 10:18 30.27233 48.08819 23957 ft 488 kts 143°
2026-05-05 10:19 30.24715 48.11414 22960 ft 487 kts 143°
2026-05-05 10:19 30.22184 48.14021 22142 ft 481 kts 143°
2026-05-05 10:19 30.19732 48.16548 21441 ft 474 kts 143°
2026-05-05 10:19 30.17291 48.19061 20782 ft 467 kts 143°
2026-05-05 10:20 30.14897 48.21524 20145 ft 460 kts 143°
2026-05-05 10:20 30.12510 48.23974 19500 ft 455 kts 143°
2026-05-05 10:20 30.10169 48.26375 18970 ft 446 kts 143°
2026-05-05 10:20 30.07884 48.28723 18605 ft 433 kts 143°
2026-05-05 10:21 30.05668 48.30999 18225 ft 423 kts 143°
2026-05-05 10:21 30.03499 48.33223 17952 ft 411 kts 143°
2026-05-05 10:21 30.01391 48.35384 17696 ft 397 kts 143°
2026-05-05 10:21 29.99385 48.37440 17449 ft 380 kts 143°
2026-05-05 10:22 29.97447 48.39423 17211 ft 363 kts 143°
2026-05-05 10:22 29.95593 48.41319 16970 ft 348 kts 144°
2026-05-05 10:22 29.93814 48.43137 16744 ft 335 kts 144°
2026-05-05 10:22 29.92108 48.44877 16572 ft 325 kts 144°
2026-05-05 10:23 29.90379 48.46438 16389 ft 309 kts 158°
2026-05-05 10:23 29.88397 48.47144 16203 ft 290 kts 181°
2026-05-05 10:23 29.86447 48.46944 15943 ft 279 kts 201°
2026-05-05 10:23 29.84730 48.45987 15511 ft 274 kts 219°
2026-05-05 10:24 29.83357 48.44472 15101 ft 272 kts 228°
2026-05-05 10:24 29.82076 48.42882 14747 ft 271 kts 228°
2026-05-05 10:24 29.80799 48.41302 14371 ft 270 kts 227°
2026-05-05 10:24 29.79518 48.39722 14003 ft 270 kts 227°
2026-05-05 10:25 29.78247 48.38156 13654 ft 268 kts 227°
2026-05-05 10:25 29.76966 48.36581 13280 ft 267 kts 227°
2026-05-05 10:25 29.75693 48.35019 12906 ft 267 kts 227°
2026-05-05 10:25 29.74428 48.33467 12512 ft 266 kts 226°
2026-05-05 10:26 29.73175 48.31930 12138 ft 266 kts 226°
2026-05-05 10:26 29.71912 48.30384 11724 ft 267 kts 226°
2026-05-05 10:26 29.70633 48.28818 11325 ft 267 kts 226°
2026-05-05 10:26 29.69359 48.27257 10879 ft 268 kts 226°
2026-05-05 10:27 29.68086 48.25700 10463 ft 268 kts 226°
2026-05-05 10:27 29.66816 48.24147 10058 ft 268 kts 226°
2026-05-05 10:27 29.65536 48.22581 9661 ft 268 kts 226°
2026-05-05 10:27 29.64266 48.21028 9242 ft 268 kts 225°
2026-05-05 10:28 29.63000 48.19481 8842 ft 268 kts 225°
2026-05-05 10:28 29.61731 48.17934 8458 ft 267 kts 225°
2026-05-05 10:28 29.60451 48.16371 8046 ft 267 kts 225°
2026-05-05 10:28 29.59176 48.14816 7680 ft 266 kts 225°
2026-05-05 10:29 29.57921 48.13285 7315 ft 265 kts 225°
2026-05-05 10:29 29.56657 48.11745 6939 ft 265 kts 225°
2026-05-05 10:29 29.55390 48.10200 6561 ft 264 kts 225°
2026-05-05 10:29 29.54136 48.08672 6192 ft 264 kts 224°
2026-05-05 10:30 29.52875 48.07137 5814 ft 263 kts 224°
2026-05-05 10:30 29.51620 48.05611 5451 ft 262 kts 224°
2026-05-05 10:30 29.50385 48.04109 5094 ft 261 kts 225°
2026-05-05 10:30 29.49128 48.02580 4725 ft 261 kts 224°
2026-05-05 10:31 29.47885 48.01068 4364 ft 261 kts 224°
2026-05-05 10:31 29.46644 47.99559 4000 ft 261 kts 224°
2026-05-05 10:31 29.45401 47.98048 3643 ft 261 kts 224°
2026-05-05 10:31 29.44162 47.96545 3293 ft 260 kts 225°
2026-05-05 10:32 29.42911 47.95028 2940 ft 260 kts 225°
2026-05-05 10:32 29.41667 47.93516 2598 ft 259 kts 225°
2026-05-05 10:32 29.40472 47.92065 2519 ft 242 kts 225°
2026-05-05 10:32 29.39354 47.90709 2463 ft 225 kts 225°
2026-05-05 10:33 29.38252 47.89567 2429 ft 203 kts 208°
2026-05-05 10:33 29.36930 47.89370 2342 ft 179 kts 168°
2026-05-05 10:33 29.35786 47.89839 2322 ft 165 kts 156°
2026-05-05 10:33 29.34661 47.90474 2257 ft 159 kts 154°
2026-05-05 10:34 29.33606 47.91073 2037 ft 151 kts 155°
2026-05-05 10:34 29.32569 47.91639 1825 ft 150 kts 156°
2026-05-05 10:34 29.31507 47.92204 1618 ft 149 kts 156°
2026-05-05 10:34 29.30476 47.92748 1409 ft 146 kts 156°
2026-05-05 10:35 29.29432 47.93299 1209 ft 145 kts 156°
2026-05-05 10:35 29.28403 47.93844 1018 ft 144 kts 155°
2026-05-05 10:35 29.27392 47.94381 825 ft 144 kts 155°
2026-05-05 10:35 29.26450 47.94879 644 ft 144 kts 155°
2026-05-05 10:36 29.25530 47.95368 464 ft 143 kts 155°
2026-05-05 10:36 29.24637 47.95842 289 ft 142 kts 155°
2026-05-05 10:36 29.23740 47.96318 145 ft 134 kts 155°
2026-05-05 10:36 29.23023 47.96698 150 ft 89 kts 155°
2026-05-05 10:37 29.22625 47.96909 156 ft 39 kts 155°
2026-05-05 10:37 29.22389 47.97035 159 ft 35 kts 155°
2026-05-05 10:37 29.22192 47.97139 161 ft 17 kts 155°
2026-05-05 10:37 29.22088 47.97195 163 ft 15 kts 155°
2026-05-05 10:38 29.22001 47.97258 164 ft 14 kts 144°
2026-05-05 10:38 29.21958 47.97353 165 ft 13 kts 111°
2026-05-05 10:38 29.21940 47.97405 165 ft 4 kts 111°
2026-05-05 10:38 29.21932 47.97438 166 ft 4 kts 98°
2026-05-05 10:39 29.21935 47.97466 167 ft 3 kts 69°
2026-05-05 10:39 29.21948 47.97486 167 ft 5 kts 38°
2026-05-05 10:39 29.22005 47.97487 167 ft 9 kts 338°
2026-05-05 10:39 29.22074 47.97450 166 ft 12 kts 335°
2026-05-05 10:40 29.22160 47.97404 165 ft 14 kts 335°
2026-05-05 10:40 29.22261 47.97351 164 ft 16 kts 335°
2026-05-05 10:40 29.22368 47.97293 163 ft 17 kts 335°
2026-05-05 10:40 29.22482 47.97232 162 ft 18 kts 334°
2026-05-05 10:41 29.22606 47.97164 159 ft 20 kts 334°
2026-05-05 10:41 29.22742 47.97090 157 ft 21 kts 334°
2026-05-05 10:41 29.22884 47.97012 155 ft 21 kts 334°
2026-05-05 10:41 29.23012 47.96941 154 ft 18 kts 334°
2026-05-05 10:42 29.23260 47.96821 149 ft 16 kts 334°
2026-05-05 10:42 29.23346 47.96776 149 ft 11 kts 340°
2026-05-05 10:42 29.23398 47.96815 148 ft 8 kts 65°
2026-05-05 10:43 29.23423 47.96872 149 ft 7 kts 63°
2026-05-05 10:43 29.23448 47.96928 150 ft 8 kts 63°
2026-05-05 10:43 29.23480 47.97001 149 ft 11 kts 63°
2026-05-05 10:43 29.23515 47.97086 151 ft 11 kts 65°
2026-05-05 10:44 29.23550 47.97172 153 ft 11 kts 66°
2026-05-05 10:44 29.23581 47.97250 155 ft 10 kts 65°
2026-05-05 10:44 29.23613 47.97327 155 ft 11 kts 65°
2026-05-05 10:44 29.23644 47.97406 156 ft 10 kts 66°
2026-05-05 10:45 29.23686 47.97451 157 ft 3 kts 11°
2026-05-05 10:45 29.23712 47.97447 158 ft 3 kts 345°
2026-05-05 10:45 29.23738 47.97437 158 ft 4 kts 338°
2026-05-05 10:45 29.23766 47.97423 158 ft 4 kts 336°
2026-05-05 10:46 29.23797 47.97407 158 ft 5 kts 336°
2026-05-05 10:46 29.23831 47.97389 159 ft 5 kts 335°
2026-05-05 10:46 29.23873 47.97369 158 ft 7 kts 341°
2026-05-05 10:46 29.23914 47.97358 158 ft 2 kts 353°
2026-05-05 10:47 29.23937 47.97355 158 ft 3 kts 351°
2026-05-05 10:47 29.23970 47.97343 158 ft 5 kts 337°
2026-05-05 10:47 29.24014 47.97319 158 ft 7 kts 333°
2026-05-05 10:47 29.24027 47.97311 157 ft 0 kts 332°